DELTA 1 DEB, 7048

Orbit data source: Space-Track

DELTA 1 DEB, 7048 is space debris in LEO originally from a launch on Tue, 06 Nov 1973 UTC launched from the Air Force Western Test Range (AFWTR). Debris objects in space refer to the collection of defunct objects orbiting the Earth. Examples of debris include non-operational satellites, rocket bodies, and fragments generated from explosions, collisions, or faulty payload assembly.

Loading next visibility...
Identifier
7048, 1973-086AQ
Orbit
LEO
Country
Flag of USUS
Related business
Manufacturer
Unknown
Mission
Spacecraft
Bus & Motor
Unknown
Mass
Unknown
Launch date (UTC)
1973-11-06 (53 years ago)
Launch vehicle
Unknown
Launch site
Air Force Western Test Range (AFWTR)
Object type
Payload
Rocket body
Debris
Shape & HBR
Unknown shape, 0.2 m
Radar Cross Section
Medium (>0.1 m² and <1 m²)

Expand to show TLE details & history
Last TLE update: 2 days ago

TLE from 2 days ago
0 DELTA 1 DEB
1 07048U 73086AQ  26208.02013684  .00000015  00000-0  84090-3 0  9995
2 07048 101.6001  37.3175 0486310 289.2095 230.3147 11.50708808208191
Epoch: 2026-07-27T00:28Z
TLE epoch observation values (Epoch: 2026-07-27T00:28:59.822Z)
Latitude
24.0865°
Longitude
-89.40014°
Altitude
2,180.369 km
Speed
6.716 km/s
True Right ascension
14h 50m 14s
True Declination
23° 58' 48"
Sunlit
Object was in daylight at epoch
Visualization orbit readout
Latitude
Unknown
Longitude
Unknown
Altitude
Unknown
Speed
Unknown
Apparent Right ascension
Unknown
Apparent Declination
Unknown
Sunlit
N/A
Visualization observer readout
Local Sidereal Time
08:42:03
Azimuth
Unknown
Elevation
Unknown
Doppler factor
Unknown
Orbital elements
Apogee altitude
2,309.968 km
Perigee altitude
1,504.134 km
Semi-major axis
8,285.188 km
Eccentricity
0.04863
Inclination
101.6001°
RAAN
37.3175°
Arg. of periapsis
289.2095°
True anomaly
226.19018°
Mean anomaly
230.3147°
Eccentric anomaly
228.23636°
Mean motion
2.87799 °/min
Orbital period
125.09 mins
BSTAR
0.0008409
Loading maneuver chart data...
Computing Atmospheric mass density...
Loading historical data...
Loading historical data...
Loading historical data...
Loading historical data...
Loading historical data...
Loading historical data...
Loading historical data...

Documentation

Showing up to 5 results
|